Regional Weather Roundup
Issued by NWS

Home | Current Version | Previous Version | Graphics & Text | Print | Product List | Glossary Off
Versions: 1 2 3 4 5 6 7 8 9 10 11 12 13 14 15 16 17 18 19 20 21 22 23 24 25 26 27 28 29 30 31 32 33 34 35 36 37 38 39 40 41 42 43 44 45 46 47 48 49 50

979
ASUS43 KMKX 231611
RWRWI

WISCONSIN REGIONAL WEATHER ROUNDUP
NATIONAL WEATHER SERVICE MILWAUKEE/SULLIVAN WI
1100 AM CDT MON OCT 23 2017

NOTE: "FAIR" INDICATES FEW OR NO CLOUDS BELOW 12,000 FEET WITH NO
SIGNIFICANT WEATHER AND/OR OBSTRUCTIONS TO VISIBILITY.

WIZ001-002-006>008-014>016-023>028-231700-
NORTHWEST WISCONSIN

CITY           SKY/WX    TMP DP  RH WIND       PRES   REMARKS
SUPERIOR ARPT  SUNNY     59  40  50 SW8       29.70R
ASHLAND        CLOUDY    55  39  54 SW15G22   29.71F
HAYWARD        CLOUDY    53  38  56 S12       29.73F
SIREN          SUNNY     56  39  52 W8        29.73S
CUMBERLAND     CLOUDY    52  37  58 SW8       29.75R
RICE LAKE      CLOUDY    53  39  59 SW8       29.77R
CHETEK         CLOUDY    52  40  63 SW6       29.76R
LADYSMITH      PTSUNNY   50  41  72 S8        29.76F
EAU CLAIRE     CLOUDY    54  38  54 SW12      29.76R
MENOMONIE      CLOUDY    55  40  56 SW8       29.77S
NEW RICHMOND   PTSUNNY   56  38  52 W9        29.76S
OSCEOLA        MOSUNNY   58  42  55 W8        29.78R
$$

WIZ003>005-009-010-017-018-231700-
NORTH CENTRAL WISCONSIN

CITY           SKY/WX    TMP DP  RH WIND       PRES   REMARKS
MANITOWISH WTR PTSUNNY   49  40  72 S10       29.75F
ARBOR VITAE    CLOUDY    52  43  72 S7        29.75F
WOODRUFF       CLOUDY    52  43  72 S7        29.75F
RHINELANDER    CLOUDY    52  38  58 S8        29.76F
EAGLE RIVER    NOT AVBL
LAND O LAKES   PTSUNNY   53  38  57 S7        29.76F
PHILLIPS       MOSUNNY   51  40  64 SW9       29.75F
TOMAHAWK       CLOUDY    48  40  73 S3        29.77F
MEDFORD        CLOUDY    48  41  76 S8        29.76F
MERRILL        CLOUDY    50  42  74 S6        29.79F
$$

WIZ029-030-035-036-043>047-231700-
CENTRAL WISCONSIN

CITY           SKY/WX    TMP DP  RH WIND       PRES   REMARKS
WAUSAU         CLOUDY    48  42  80 SE9       29.79F
MOSINEE        PTSUNNY   46  46 100 S8        29.82F
MARSHFIELD     CLOUDY    52  41  66 S8        29.77F
STEVENS POINT  MOSUNNY   47  42  80 S5        29.82F
WAUPACA        CLOUDY    46  45  97 CALM      29.84F FOG
WAUTOMA        CLOUDY   N/A N/A N/A MISG        N/A
WISC RAPIDS    PTSUNNY   48  44  86 S5        29.81F
CAMP DOUGLAS   PTSUNNY   52  45  76 SE8       29.78F
$$

WIZ011>013-019>022-031-037>040-048>050-231700-
NORTHEAST WISCONSIN

CITY           SKY/WX    TMP DP  RH WIND       PRES   REMARKS
ANTIGO         MOSUNNY   48  38  70 S10       29.82S
SHAWANO        CLOUDY    46  45  96 CALM      29.84S
OCONTO         CLOUDY    46  46 100 E3        29.83F
STURGEON BAY   CLOUDY    50  46  86 E3        29.84F
GREEN BAY      CLOUDY    49  49 100 CALM      29.84F FOG
MANITOWOC      CLOUDY    48  46  93 N3        29.85F
APPLETON       PTSUNNY   46  46 100 CALM      29.82F
CLINTONVILLE   CLOUDY    45  45 100 W3        29.84S
OSHKOSH        CLOUDY    50  45  83 CALM      29.83F
$$

WIZ032>034-041-042-053>061-231700-
SOUTHWEST WISCONSIN

CITY           SKY/WX    TMP DP  RH WIND       PRES   REMARKS
LA CROSSE      CLOUDY    54  43  66 SW13      29.79F
SPARTA         MOSUNNY   53  43  68 W6        29.79F
VIROQUA        CLOUDY    51  44  79 SW9       29.80F
BOSCOBEL       CLOUDY    46  45  96 CALM      29.81F
PRAIRIE DU CHI CLOUDY    51  45  80 W3        29.80F
PLATTEVILLE    CLOUDY    51  48  90 SE7       29.82F
$$

WIZ056-057-062-063-064-067-068-231700-
SOUTH CENTRAL WISCONSIN

CITY           SKY/WX    TMP DP  RH WIND       PRES   REMARKS
REEDSBURG      CLOUDY    48  46  95 CALM      29.82F
BARABOO/DELLS  CLOUDY    48  46  90 SW3       29.82F
LONE ROCK      CLOUDY    47  47 100 E3        29.82F
MINERAL POINT  CLOUDY    50  48  93 S5        29.82F
MADISON        CLOUDY    51  48  89 CALM      29.83F
MIDDLETON      CLOUDY    51  51  97 CALM      29.84F
WATERTOWN      CLOUDY    47  47 100 CALM      29.84F
MONROE         CLOUDY    52  41  66 SW3       29.83F
JANESVILLE     CLOUDY    50  50 100 CALM      29.84F
$$

WIZ051-052-058>065-066-070>072-231700-
SOUTHEAST WISCONSIN

CITY           SKY/WX    TMP DP  RH WIND       PRES   REMARKS
MILWAUKEE      CLOUDY    53  49  86 N6        29.83F
WAUKESHA       SUNNY     48  45  87 CALM      29.85F
MILWAUKEE/TIMM SUNNY     50  45  81 CALM      29.85S
RACINE         CLOUDY    52  51  97 N5        29.84F
BURLINGTON     PTSUNNY   50  50 100 CALM      29.84S
KENOSHA        CLOUDY    52  49  89 N5        29.82F
FOND DU LAC    CLOUDY    50  46  86 CALM      29.83F
SHEBOYGAN      CLOUDY    51  48  89 N3        29.83F
WEST BEND      CLOUDY    48  45  87 CALM      29.83F
JUNEAU         CLOUDY    46  46  99 CALM      29.85S
$$

LSZ147-162-231700-
LAKE SUPERIOR

STATION/POSITION TIME  TEMP    WIND        PRES    WAVE
                       AIR SEA DIR/SP/G            HT/PER
                 (UTC) (F)     (DEG/KT/KT) (MB)    (FT/S)
W MID LAKE BUOY  1550   53 51              1005.7F   3/ 5
DEVILS ISLAND    1600   54     200/  7/  9 1005.5F
SAXON HARBOR     1530   56     190/ 10/ 19 1005.4F
$$

LMZ867-665-643>646-231700-
LAKE MICHIGAN

STATION/POSITION TIME  TEMP    WIND        PRES    WAVE
                       AIR SEA DIR/SP/G            HT/PER
                 (UTC) (F)     (DEG/KT/KT) (MB)    (FT/S)
S GREEN BAY BUOY 1600   50 58  140/  4/  6 1009.8
N MID LAKE BUOY  1550   52 57  120/  2/  2 1011.1F   0
NORTHPORT PIER   1540   51     150/  2/  4 1010.5F
KEWAUNEE LAKESHO 1548   49      40/  3/  4 1009.5F
SHEBOYGAN LAKESH 1600   49     350/  7/  8 1010.3F
PORT WASHINGTON  1530   52     330/  2/  3 1011.5S
MILWAUKEE LAKESH 1550   51      10/  4/  5   N/A
S MID LAKE BUOY  1550   54 60   30/ 16/ 17 1009.0F   3/ 5
KENOSHA   LAKESH 1600   52     350/  7/  8 1009.5
$$

TC  - TEMPERATURE IN CELSIUS
VSB - VISIBILITY IN STATUTE MILES
WCI - WIND CHILL INDEX
HX  - HEAT INDEX





USA.gov is the U.S. government's official web portal to all federal, state and local government web resources and services.